Lid_Strength_Index
0 0 1 1 2 2 2 3 3 4 6 7 8 9 9 9 9 8 6 5 4 2 1 1 1 1 1 1 1 2 2 2 3 3 3 3 3 2 2 2 1 1 0
1 1 2 3 3 2 3 3 4 6 8 9 10 11 11 11 12 11 10 8 6 5 3 2 2 1 2 2 2 3 3 3 4 4 4 4 3 3 3 3 2 2 2
2 3 3 4 4 4 6 5 7 8 9 10 12 12 12 12 13 13 12 12 10 6 5 4 4 4 3 3 3 3 3 4 4 5 5 4 4 4 4 3 3 3 3
3 4 4 4 5 6 6 6 8 8 10 11 13 13 13 13 13 13 13 13 12 11 8 7 7 6 5 4 4 4 4 5 5 5 5 5 5 5 4 4 4 3 3
5 4 5 7 7 7 7 8 8 9 12 13 14 14 14 14 14 14 14 14 13 13 13 11 10 9 7 6 5 5 5 5 6 6 6 6 5 5 5 5 4 4 4
6 6 8 8 9 9 9 8 9 10 12 13 15 15 15 14 14 14 14 14 14 14 14 14 14 13 9 8 7 6 6 6 6 6 6 6 6 6 5 5 5 5 4
8 8 9 11 10 9 8 9 10 12 14 14 14 15 15 15 15 15 14 14 14 14 15 15 15 15 14 11 9 7 7 6 6 6 7 6 6 6 6 6 5 5 5
9 10 12 12 10 10 10 10 11 13 13 13 12 12 14 14 15 16 15 15 15 14 15 16 16 16 15 14 12 9 8 7 7 7 7 7 7 7 6 6 5 5 4
11 11 13 12 11 9 10 10 11 12 14 15 13 10 13 12 14 15 16 16 16 15 15 16 16 16 16 15 13 12 10 9 8 8 8 7 7 7 6 5 5 4 4
13 13 14 13 12 10 11 11 12 13 13 14 15 16 15 14 16 18 16 17 16 16 16 16 17 17 16 16 15 13 11 10 10 9 9 8 7 7 6 5 4 4 3
14 15 15 14 13 12 12 13 14 14 14 14 15 16 16 16 16 16 18 18 17 16 16 16 16 17 17 16 14 13 12 11 11 10 10 9 8 6 5 5 4 4 4
16 16 16 15 15 15 14 15 15 14 15 15 15 15 16 16 17 17 18 18 18 17 16 16 16 16 16 16 16 14 13 12 11 11 10 9 8 7 6 5 5 4 4
17 17 17 16 16 16 16 16 15 16 16 15 16 16 16 16 17 17 18 19 19 18 17 16 16 16 16 15 15 14 14 13 12 10 10 9 8 7 6 6 5 5 4
16 17 17 17 17 17 17 16 16 16 16 16 16 16 17 17 17 17 18 19 20 19 18 17 16 15 15 15 15 14 15 14 12 10 9 8 8 7 7 6 5 5 4
17 18 17 17 17 17 17 17 17 17 16 16 17 17 17 18 18 17 17 18 18 19 18 17 17 15 15 15 15 15 15 14 12 11 9 9 8 7 7 6 5 4 4
18 18 18 17 18 18 17 17 17 17 17 17 17 18 18 18 18 17 17 17 18 18 18 17 16 16 16 16 15 14 14 13 12 11 10 9 7 7 6 6 5 5 5
18 18 18 18 18 18 18 18 18 18 18 18 18 18 19 18 18 18 18 18 18 18 18 17 17 16 17 16 15 14 14 13 12 11 10 9 7 7 7 6 6 5 5
18 18 18 18 18 18 18 18 18 18 18 19 19 19 19 18 18 18 18 18 18 18 18 19 17 17 17 15 15 15 14 13 12 12 10 9 8 7 7 6 5 5 6
19 19 18 19 18 18 18 18 18 18 19 19 19 19 19 18 19 18 18 18 18 18 18 18 18 17 16 15 15 14 13 12 13 11 10 10 8 8 7 6 5 6 7
19 19 18 18 18 18 18 18 18 19 19 19 19 18 18 18 18 18 18 18 18 18 18 18 18 17 16 15 15 15 14 12 13 12 10 10 8 9 8 7 7 7 7
18 18 18 18 18 19 19 19 19 19 19 19 18 18 17 17 16 16 17 18 18 18 18 18 18 17 16 16 15 13 14 13 12 12 12 11 10 11 10 8 8 7 7
19 19 19 19 19 19 17 16 18 19 19 19 18 18 17 16 16 14 14 15 16 17 18 17 16 17 15 14 13 13 14 14 14 10 12 12 11 11 10 9 7 7 6
19 19 19 19 19 19 16 16 17 19 18 18 18 18 18 17 17 17 14 13 12 12 12 15 15 14 14 13 12 13 13 13 13 11 12 14 11 12 10 9 7 6 6
19 19 19 19 19 19 15 15 16 18 17 17 17 17 17 17 17 17 17 17 16 15 15 14 13 12 12 11 11 11 11 13 12 11 12 15 11 13 11 10 8 7 6
19 19 18 19 19 19 15 14 14 16 17 17 17 17 17 17 15 14 16 17 16 15 13 11 9 9 8 7 6 10 12 14 13 12 12 14 13 13 12 11 9 8 7
18 19 19 18 18 19 15 13 13 14 16 16 16 16 15 15 14 13 13 15 16 14 13 13 12 11 9 9 8 9 11 13 14 15 12 14 14 13 16 12 11 11 10